����������;��������(kWh)
2017-07-17 00:00;99,9
2017-07-17 00:15;100,3
2017-07-17 00:30;97
2017-07-17 00:45;105,4
2017-07-17 01:00;107,9
2017-07-17 01:15;109,45
2017-07-17 01:30;101,1
2017-07-17 01:45;98,85
2017-07-17 02:00;100,95
2017-07-17 02:15;101,35
2017-07-17 02:30;100,85
2017-07-17 02:45;97,8
2017-07-17 03:00;96,45
2017-07-17 03:15;100,5
2017-07-17 03:30;100,95
2017-07-17 03:45;100
2017-07-17 04:00;97,7
2017-07-17 04:15;99,7
2017-07-17 04:30;100,4
2017-07-17 04:45;99,9
2017-07-17 05:00;96,65
2017-07-17 05:15;93,25
2017-07-17 05:30;95,85
2017-07-17 05:45;95,2
2017-07-17 06:00;94,55
2017-07-17 06:15;91,55
2017-07-17 06:30;90,85
2017-07-17 06:45;92,6
2017-07-17 07:00;91,1
2017-07-17 07:15;101,6
2017-07-17 07:30;160,15
2017-07-17 07:45;121,55
2017-07-17 08:00;124,6
2017-07-17 08:15;139,9
2017-07-17 08:30;131,2
2017-07-17 08:45;140,4
2017-07-17 09:00;147,45
2017-07-17 09:15;158,35
2017-07-17 09:30;162,2
2017-07-17 09:45;177,1
2017-07-17 10:00;211,25
2017-07-17 10:15;188,85
2017-07-17 10:30;188,9
2017-07-17 10:45;198,2
2017-07-17 11:00;206,25
2017-07-17 11:15;219,25
2017-07-17 11:30;268,3
2017-07-17 11:45;269,7
2017-07-17 12:00;232,4
2017-07-17 12:15;234,45
2017-07-17 12:30;235,4
2017-07-17 12:45;238,35
2017-07-17 13:00;236,15
2017-07-17 13:15;242,2
2017-07-17 13:30;234,15
2017-07-17 13:45;228,8
2017-07-17 14:00;222,6
2017-07-17 14:15;220,1
2017-07-17 14:30;220,05
2017-07-17 14:45;200,45
2017-07-17 15:00;196,15
2017-07-17 15:15;185,25
2017-07-17 15:30;176
2017-07-17 15:45;169
2017-07-17 16:00;163,25
2017-07-17 16:15;156,05
2017-07-17 16:30;154
2017-07-17 16:45;147,55
2017-07-17 17:00;149,1
2017-07-17 17:15;136,35
2017-07-17 17:30;135,25
2017-07-17 17:45;130,65
2017-07-17 18:00;127,6
2017-07-17 18:15;123,1
2017-07-17 18:30;124,25
2017-07-17 18:45;124,4
2017-07-17 19:00;122,65
2017-07-17 19:15;121,25
2017-07-17 19:30;120,85
2017-07-17 19:45;117,7
2017-07-17 20:00;116,1
2017-07-17 20:15;115,8
2017-07-17 20:30;118,7
2017-07-17 20:45;118,9
2017-07-17 21:00;120,3
2017-07-17 21:15;117,5
2017-07-17 21:30;116,8
2017-07-17 21:45;111,65
2017-07-17 22:00;111,25
2017-07-17 22:15;108,05
2017-07-17 22:30;107,45
2017-07-17 22:45;109,8
2017-07-17 23:00;108,75
2017-07-17 23:15;104,95
2017-07-17 23:30;104,3
2017-07-17 23:45;102,2
2017-07-18 00:00;100,95
2017-07-18 00:15;100,4
2017-07-18 00:30;100,55
2017-07-18 00:45;103,4
2017-07-18 01:00;101,1
2017-07-18 01:15;97,5
2017-07-18 01:30;94,6
2017-07-18 01:45;93,05
2017-07-18 02:00;93,65
2017-07-18 02:15;94,95
2017-07-18 02:30;97,85
2017-07-18 02:45;88,6
2017-07-18 03:00;87,75
2017-07-18 03:15;85,25
2017-07-18 03:30;87,9
2017-07-18 03:45;84,45
2017-07-18 04:00;88,05
2017-07-18 04:15;84,4
2017-07-18 04:30;87,3
2017-07-18 04:45;85,1
2017-07-18 05:00;86,5
2017-07-18 05:15;85,1
2017-07-18 05:30;86,15
2017-07-18 05:45;85,3
2017-07-18 06:00;84,65
2017-07-18 06:15;83,7
2017-07-18 06:30;83,8
2017-07-18 06:45;93,95
2017-07-18 07:00;94,85
2017-07-18 07:15;99,15
2017-07-18 07:30;145,1
2017-07-18 07:45;131,9
2017-07-18 08:00;120,1
2017-07-18 08:15;123,35
2017-07-18 08:30;125,1
2017-07-18 08:45;123,45
2017-07-18 09:00;129,95
2017-07-18 09:15;147,45
2017-07-18 09:30;154,75
2017-07-18 09:45;160,4
2017-07-18 10:00;155,4
2017-07-18 10:15;164,3
2017-07-18 10:30;176,15
2017-07-18 10:45;187,55
2017-07-18 11:00;187
2017-07-18 11:15;182,7
2017-07-18 11:30;182,95
2017-07-18 11:45;184,6
2017-07-18 12:00;191,65
2017-07-18 12:15;193
2017-07-18 12:30;188,85
2017-07-18 12:45;186,4
2017-07-18 13:00;191,8
2017-07-18 13:15;199,55
2017-07-18 13:30;220,2
2017-07-18 13:45;236,95
2017-07-18 14:00;210,25
2017-07-18 14:15;210,6
2017-07-18 14:30;205,8
2017-07-18 14:45;193,1
2017-07-18 15:00;178,85
2017-07-18 15:15;172,25
2017-07-18 15:30;168,2
2017-07-18 15:45;159,9
2017-07-18 16:00;160,65
2017-07-18 16:15;154,15
2017-07-18 16:30;153,15
2017-07-18 16:45;152,45
2017-07-18 17:00;148,4
2017-07-18 17:15;134,9
2017-07-18 17:30;136,9
2017-07-18 17:45;133,7
2017-07-18 18:00;131,95
2017-07-18 18:15;136
2017-07-18 18:30;132,15
2017-07-18 18:45;128,7
2017-07-18 19:00;126,05
2017-07-18 19:15;125
2017-07-18 19:30;122,95
2017-07-18 19:45;123,2
2017-07-18 20:00;118,05
2017-07-18 20:15;118,45
2017-07-18 20:30;120,8
2017-07-18 20:45;121,95
2017-07-18 21:00;120,1
2017-07-18 21:15;116,2
2017-07-18 21:30;114,9
2017-07-18 21:45;109,25
2017-07-18 22:00;106,7
2017-07-18 22:15;108,05
2017-07-18 22:30;106,25
2017-07-18 22:45;104,8
2017-07-18 23:00;103,4
2017-07-18 23:15;102,35
2017-07-18 23:30;101,1
2017-07-18 23:45;103,65
2017-07-19 00:00;94,3
2017-07-19 00:15;91,85
2017-07-19 00:30;89,35
2017-07-19 00:45;89,95
2017-07-19 01:00;88,85
2017-07-19 01:15;89
2017-07-19 01:30;86,2
2017-07-19 01:45;88,6
2017-07-19 02:00;86,7
2017-07-19 02:15;88,6
2017-07-19 02:30;85,7
2017-07-19 02:45;88,55
2017-07-19 03:00;87,35
2017-07-19 03:15;89,15
2017-07-19 03:30;85,85
2017-07-19 03:45;88,65
2017-07-19 04:00;87,85
2017-07-19 04:15;88,6
2017-07-19 04:30;88,05
2017-07-19 04:45;86,45
2017-07-19 05:00;87,95
2017-07-19 05:15;87,8
2017-07-19 05:30;88,2
2017-07-19 05:45;87
2017-07-19 06:00;87,9
2017-07-19 06:15;86,9
2017-07-19 06:30;95,05
2017-07-19 06:45;97,95
2017-07-19 07:00;87,7
2017-07-19 07:15;97,05
2017-07-19 07:30;148
2017-07-19 07:45;140,4
2017-07-19 08:00;126,25
2017-07-19 08:15;130,3
2017-07-19 08:30;131,55
2017-07-19 08:45;137,55
2017-07-19 09:00;143,2
2017-07-19 09:15;152,65
2017-07-19 09:30;157,3
2017-07-19 09:45;167,3
2017-07-19 10:00;160,45
2017-07-19 10:15;164,35
2017-07-19 10:30;168,8
2017-07-19 10:45;177,8
2017-07-19 11:00;180,9
2017-07-19 11:15;187,9
2017-07-19 11:30;186,1
2017-07-19 11:45;187,55
2017-07-19 12:00;201,3
2017-07-19 12:15;197,15
2017-07-19 12:30;193,4
2017-07-19 12:45;201,7
2017-07-19 13:00;200,7
2017-07-19 13:15;200,75
2017-07-19 13:30;191,55
2017-07-19 13:45;193,4
2017-07-19 14:00;200,85
2017-07-19 14:15;195,95
2017-07-19 14:30;187,5
2017-07-19 14:45;179,75
2017-07-19 15:00;176,95
2017-07-19 15:15;177,55
2017-07-19 15:30;176,15
2017-07-19 15:45;158,6
2017-07-19 16:00;155,6
2017-07-19 16:15;144,6
2017-07-19 16:30;144,5
2017-07-19 16:45;139,8
2017-07-19 17:00;139,25
2017-07-19 17:15;133,95
2017-07-19 17:30;134,8
2017-07-19 17:45;131,6
2017-07-19 18:00;130,2
2017-07-19 18:15;127,5
2017-07-19 18:30;129,55
2017-07-19 18:45;127,25
2017-07-19 19:00;127,35
2017-07-19 19:15;124,25
2017-07-19 19:30;129,15
2017-07-19 19:45;126,65
2017-07-19 20:00;120,1
2017-07-19 20:15;118,9
2017-07-19 20:30;118,35
2017-07-19 20:45;118,2
2017-07-19 21:00;117
2017-07-19 21:15;112,65
2017-07-19 21:30;105,95
2017-07-19 21:45;102,4
2017-07-19 22:00;96,95
2017-07-19 22:15;98,75
2017-07-19 22:30;97,25
2017-07-19 22:45;98,3
2017-07-19 23:00;97,4
2017-07-19 23:15;97,5
2017-07-19 23:30;94,1
2017-07-19 23:45;94,8
2017-07-20 00:00;95,4
2017-07-20 00:15;96,1
2017-07-20 00:30;97,5
2017-07-20 00:45;94,5
2017-07-20 01:00;90,85
2017-07-20 01:15;91
2017-07-20 01:30;88
2017-07-20 01:45;88,05
2017-07-20 02:00;87,75
2017-07-20 02:15;88
2017-07-20 02:30;87,25
2017-07-20 02:45;88,7
2017-07-20 03:00;87,55
2017-07-20 03:15;87,65
2017-07-20 03:30;86,9
2017-07-20 03:45;87,2
2017-07-20 04:00;88,5
2017-07-20 04:15;88,75
2017-07-20 04:30;86,8
2017-07-20 04:45;87,25
2017-07-20 05:00;86,75
2017-07-20 05:15;88
2017-07-20 05:30;85,85
2017-07-20 05:45;86,4
2017-07-20 06:00;85,1
2017-07-20 06:15;83,3
2017-07-20 06:30;90,75
2017-07-20 06:45;95,25
2017-07-20 07:00;88,4
2017-07-20 07:15;95,8
2017-07-20 07:30;137,25
2017-07-20 07:45;128
2017-07-20 08:00;123,7
2017-07-20 08:15;130,95
2017-07-20 08:30;136,05
2017-07-20 08:45;140,05
2017-07-20 09:00;159,35
2017-07-20 09:15;169,25
2017-07-20 09:30;179,45
2017-07-20 09:45;183,85
2017-07-20 10:00;171,05
2017-07-20 10:15;181,95
2017-07-20 10:30;192,15
2017-07-20 10:45;201,05
2017-07-20 11:00;200,95
2017-07-20 11:15;209,4
2017-07-20 11:30;214,85
2017-07-20 11:45;215,1
2017-07-20 12:00;213,9
2017-07-20 12:15;215
2017-07-20 12:30;204,55
2017-07-20 12:45;209,65
2017-07-20 13:00;214,7
2017-07-20 13:15;211,8
2017-07-20 13:30;202,95
2017-07-20 13:45;213,1
2017-07-20 14:00;207,65
2017-07-20 14:15;203,15
2017-07-20 14:30;192,95
2017-07-20 14:45;188,3
2017-07-20 15:00;178,4
2017-07-20 15:15;168,5
2017-07-20 15:30;161,7
2017-07-20 15:45;159,35
2017-07-20 16:00;149,65
2017-07-20 16:15;144,65
2017-07-20 16:30;142,15
2017-07-20 16:45;139,7
2017-07-20 17:00;138,1
2017-07-20 17:15;135,65
2017-07-20 17:30;133,55
2017-07-20 17:45;133,6
2017-07-20 18:00;133,4
2017-07-20 18:15;122,45
2017-07-20 18:30;128,75
2017-07-20 18:45;124,85
2017-07-20 19:00;126,25
2017-07-20 19:15;118,8
2017-07-20 19:30;118,45
2017-07-20 19:45;116,4
2017-07-20 20:00;116
2017-07-20 20:15;111,75
2017-07-20 20:30;117,6
2017-07-20 20:45;120,35
2017-07-20 21:00;121,65
2017-07-20 21:15;116,45
2017-07-20 21:30;119,45
2017-07-20 21:45;121,7
2017-07-20 22:00;114,5
2017-07-20 22:15;114,65
2017-07-20 22:30;112,7
2017-07-20 22:45;110,1
2017-07-20 23:00;110
2017-07-20 23:15;106,95
2017-07-20 23:30;102,85
2017-07-20 23:45;101
2017-07-21 00:00;99,55
2017-07-21 00:15;101,65
2017-07-21 00:30;100,65
2017-07-21 00:45;96,3
2017-07-21 01:00;91,6
2017-07-21 01:15;90,85
2017-07-21 01:30;89,15
2017-07-21 01:45;87,7
2017-07-21 02:00;87,25
2017-07-21 02:15;86,95
2017-07-21 02:30;87
2017-07-21 02:45;87,95
2017-07-21 03:00;87,35
2017-07-21 03:15;85,4
2017-07-21 03:30;87,35
2017-07-21 03:45;84,9
2017-07-21 04:00;86,75
2017-07-21 04:15;85,95
2017-07-21 04:30;85,45
2017-07-21 04:45;86,7
2017-07-21 05:00;84,8
2017-07-21 05:15;87,7
2017-07-21 05:30;84,8
2017-07-21 05:45;85
2017-07-21 06:00;84,1
2017-07-21 06:15;84,85
2017-07-21 06:30;82,75
2017-07-21 06:45;92,25
2017-07-21 07:00;89,4
2017-07-21 07:15;95,1
2017-07-21 07:30;139,5
2017-07-21 07:45;123,7
2017-07-21 08:00;117,05
2017-07-21 08:15;124,5
2017-07-21 08:30;126,8
2017-07-21 08:45;137,35
2017-07-21 09:00;156,45
2017-07-21 09:15;165
2017-07-21 09:30;163,6
2017-07-21 09:45;182,2
2017-07-21 10:00;167,65
2017-07-21 10:15;171,85
2017-07-21 10:30;170,7
2017-07-21 10:45;191,95
2017-07-21 11:00;204,85
2017-07-21 11:15;193,5
2017-07-21 11:30;191,4
2017-07-21 11:45;205,2
2017-07-21 12:00;204,9
2017-07-21 12:15;203,75
2017-07-21 12:30;195,8
2017-07-21 12:45;225,15
2017-07-21 13:00;243,45
2017-07-21 13:15;195,85
2017-07-21 13:30;203,55
2017-07-21 13:45;203,05
2017-07-21 14:00;202,6
2017-07-21 14:15;203,1
2017-07-21 14:30;203
2017-07-21 14:45;181,95
2017-07-21 15:00;173,15
2017-07-21 15:15;163,05
2017-07-21 15:30;153,75
2017-07-21 15:45;151,9
2017-07-21 16:00;145,15
2017-07-21 16:15;134,7
2017-07-21 16:30;133,25
2017-07-21 16:45;130,8
2017-07-21 17:00;126,25
2017-07-21 17:15;126,45
2017-07-21 17:30;122,05
2017-07-21 17:45;120,9
2017-07-21 18:00;121,9
2017-07-21 18:15;118,85
2017-07-21 18:30;122,45
2017-07-21 18:45;121,95
2017-07-21 19:00;114,25
2017-07-21 19:15;110,75
2017-07-21 19:30;113,5
2017-07-21 19:45;107
2017-07-21 20:00;107,65
2017-07-21 20:15;107,65
2017-07-21 20:30;109,2
2017-07-21 20:45;112
2017-07-21 21:00;111,9
2017-07-21 21:15;110,4
2017-07-21 21:30;114,1
2017-07-21 21:45;111,95
2017-07-21 22:00;107,7
2017-07-21 22:15;105,55
2017-07-21 22:30;104,5
2017-07-21 22:45;106,3
2017-07-21 23:00;103,55
2017-07-21 23:15;100,95
2017-07-21 23:30;96,2
2017-07-21 23:45;97,8
2017-07-22 00:00;95,45
2017-07-22 00:15;95,9
2017-07-22 00:30;92,2
2017-07-22 00:45;91,55
2017-07-22 01:00;92
2017-07-22 01:15;92,55
2017-07-22 01:30;85,95
2017-07-22 01:45;81,25
2017-07-22 02:00;83,75
2017-07-22 02:15;82,9
2017-07-22 02:30;84,3
2017-07-22 02:45;81,65
2017-07-22 03:00;84,4
2017-07-22 03:15;83,15
2017-07-22 03:30;83,3
2017-07-22 03:45;82,75
2017-07-22 04:00;83,6
2017-07-22 04:15;82,9
2017-07-22 04:30;82,95
2017-07-22 04:45;83,25
2017-07-22 05:00;82,35
2017-07-22 05:15;83,55
2017-07-22 05:30;81,75
2017-07-22 05:45;82,1
2017-07-22 06:00;83,4
2017-07-22 06:15;80,1
2017-07-22 06:30;77
2017-07-22 06:45;76,3
2017-07-22 07:00;75,4
2017-07-22 07:15;75,9
2017-07-22 07:30;75,75
2017-07-22 07:45;77,7
2017-07-22 08:00;77,85
2017-07-22 08:15;76,9
2017-07-22 08:30;78,7
2017-07-22 08:45;76,8
2017-07-22 09:00;81,5
2017-07-22 09:15;83,4
2017-07-22 09:30;87,75
2017-07-22 09:45;92,9
2017-07-22 10:00;78,7
2017-07-22 10:15;78,65
2017-07-22 10:30;77,95
2017-07-22 10:45;79,7
2017-07-22 11:00;78,85
2017-07-22 11:15;79,15
2017-07-22 11:30;80,55
2017-07-22 11:45;82,45
2017-07-22 12:00;81,35
2017-07-22 12:15;81,65
2017-07-22 12:30;84,35
2017-07-22 12:45;80,8
2017-07-22 13:00;83,55
2017-07-22 13:15;81,95
2017-07-22 13:30;84,4
2017-07-22 13:45;81,2
2017-07-22 14:00;83,55
2017-07-22 14:15;82,75
2017-07-22 14:30;84,85
2017-07-22 14:45;84,25
2017-07-22 15:00;84,95
2017-07-22 15:15;83,7
2017-07-22 15:30;82,95
2017-07-22 15:45;84,1
2017-07-22 16:00;83,1
2017-07-22 16:15;84,3
2017-07-22 16:30;85,9
2017-07-22 16:45;84,85
2017-07-22 17:00;85,9
2017-07-22 17:15;87,5
2017-07-22 17:30;86,85
2017-07-22 17:45;89,15
2017-07-22 18:00;89,2
2017-07-22 18:15;91,15
2017-07-22 18:30;92,1
2017-07-22 18:45;94,55
2017-07-22 19:00;95,85
2017-07-22 19:15;96,15
2017-07-22 19:30;95,25
2017-07-22 19:45;97,05
2017-07-22 20:00;97,6
2017-07-22 20:15;94,6
2017-07-22 20:30;92,75
2017-07-22 20:45;90,95
2017-07-22 21:00;95,15
2017-07-22 21:15;95,8
2017-07-22 21:30;95,7
2017-07-22 21:45;94,75
2017-07-22 22:00;93,2
2017-07-22 22:15;93,85
2017-07-22 22:30;93
2017-07-22 22:45;94,1
2017-07-22 23:00;91,45
2017-07-22 23:15;89,55
2017-07-22 23:30;89,5
2017-07-22 23:45;86,5
2017-07-23 00:00;88,5
2017-07-23 00:15;87,15
2017-07-23 00:30;86,95
2017-07-23 00:45;86,2
2017-07-23 01:00;86,7
2017-07-23 01:15;83,55
2017-07-23 01:30;84,75
2017-07-23 01:45;82,95
2017-07-23 02:00;85,05
2017-07-23 02:15;82,75
2017-07-23 02:30;83,55
2017-07-23 02:45;83,25
2017-07-23 03:00;84,45
2017-07-23 03:15;83,5
2017-07-23 03:30;84,3
2017-07-23 03:45;83,45
2017-07-23 04:00;83,7
2017-07-23 04:15;83,65
2017-07-23 04:30;83,7
2017-07-23 04:45;83,8
2017-07-23 05:00;82,65
2017-07-23 05:15;81,05
2017-07-23 05:30;83,55
2017-07-23 05:45;81,8
2017-07-23 06:00;82,3
2017-07-23 06:15;79,65
2017-07-23 06:30;78,75
2017-07-23 06:45;76,75
2017-07-23 07:00;75,95
2017-07-23 07:15;74,45
2017-07-23 07:30;77,45
2017-07-23 07:45;77,15
2017-07-23 08:00;79,4
2017-07-23 08:15;77,5
2017-07-23 08:30;79,25
2017-07-23 08:45;79,55
2017-07-23 09:00;82,3
2017-07-23 09:15;84
2017-07-23 09:30;88,5
2017-07-23 09:45;93,6
2017-07-23 10:00;82,3
2017-07-23 10:15;79,4
2017-07-23 10:30;80,25
2017-07-23 10:45;81,7
2017-07-23 11:00;81,15
2017-07-23 11:15;80,8
2017-07-23 11:30;81
2017-07-23 11:45;82,3
2017-07-23 12:00;85,5
2017-07-23 12:15;83,85
2017-07-23 12:30;85,15
2017-07-23 12:45;84,8
2017-07-23 13:00;87,15
2017-07-23 13:15;88,2
2017-07-23 13:30;87,85
2017-07-23 13:45;89,3
2017-07-23 14:00;89,7
2017-07-23 14:15;87,9
2017-07-23 14:30;89,65
2017-07-23 14:45;87,05
2017-07-23 15:00;86,95
2017-07-23 15:15;87,35
2017-07-23 15:30;85,35
2017-07-23 15:45;87,45
2017-07-23 16:00;85,4
2017-07-23 16:15;85,85
2017-07-23 16:30;86,4
2017-07-23 16:45;84,25
2017-07-23 17:00;84,95
2017-07-23 17:15;86,25
2017-07-23 17:30;87,2
2017-07-23 17:45;91,05
2017-07-23 18:00;90,45
2017-07-23 18:15;90
2017-07-23 18:30;89,85
2017-07-23 18:45;91,15
2017-07-23 19:00;90,2
2017-07-23 19:15;92
2017-07-23 19:30;91,25
2017-07-23 19:45;92,8
2017-07-23 20:00;90,45
2017-07-23 20:15;88,5
2017-07-23 20:30;88,3
2017-07-23 20:45;91,2
2017-07-23 21:00;95,3
2017-07-23 21:15;93,9
2017-07-23 21:30;93,1
2017-07-23 21:45;93,15
2017-07-23 22:00;92,45
2017-07-23 22:15;93,5
2017-07-23 22:30;96,35
2017-07-23 22:45;94,6
2017-07-23 23:00;96,15
2017-07-23 23:15;93,45
2017-07-23 23:30;91,1
2017-07-23 23:45;91,65

